Location: Amsterdam
(30.7274°N, 84.4357°W)
Time: 08:43:47
(UTC+00:00)

MOZHAYETS 4 - Pass Details

Date: 21 March 2026
Orbit: 642 x 659 km, 98.3° (Epoch: 19 April)

Event Time Altitude Azimuth Distance (km) Brightness Sun altitude
Rises 09:28:09 0° 117° (ESE) 2,978 11.6 -28.7°
Reaches altitude 10° 09:32:05 10° 82° (E) 2,070 11.2 -27.9°
Maximum altitude 09:33:18 11° 66° (ENE) 2,004 11.1 -27.7°
Drops below altitude 10° 09:34:31 10° 51° (NE) 2,071 11.1 -27.4°
Sets 09:38:27 0° 16° (NNE) 2,985 11.5 -26.6°
